Terug naar catalogus

ONDOSAT-OWL-11

ActiefAmateurradioVLEO
NORAD 62385·PAYLOAD·🇲🇳 Mongolia

Gelanceerd Dec 21, 2024 vanaf Vandenberg Space Force Base

Loading…

Volgende Passages (komende 24 uur)

TLE

VersSource: Space-Track

Epoch: Sep 14, 2026, 14:37 UTC

1 62385U 24247J   26257.60946324  .00052698  00000-0  65280-3 0  9993
2 62385  44.9969 102.8717 0006623 210.0818 149.9697 15.59315662 97374

Volg ONDOSAT-OWL-11 in realtime met AllMySat

Download on the App Store